Lid_Strength_Index
2 2 2 1 1 2 2 1 2 1 1 1 1 1 1 1 2 4 7 4 2 1 2 6 6 6 6 7 7 6 11 14 12 11 10 6 7 5 4 6 5 5 5 5 3
2 2 2 2 2 2 2 2 2 2 1 1 1 2 2 2 5 7 4 2 1 2 7 8 8 7 8 8 8 9 11 11 8 7 8 7 7 7 7 7 7 6 4 3 3
2 2 2 2 2 2 2 2 2 2 1 1 2 2 2 2 7 7 3 2 3 3 6 6 6 7 9 8 9 9 12 9 9 8 7 8 7 6 8 9 7 7 6 5 4
2 2 2 2 2 2 2 2 2 2 2 2 2 2 2 4 13 5 3 3 3 4 6 6 7 9 11 11 8 11 10 10 9 9 9 10 7 8 8 7 5 4 4 5 5
3 3 3 3 3 2 2 2 2 2 2 2 2 1 3 7 7 3 4 3 4 4 6 6 7 8 10 9 9 10 10 9 9 9 9 9 10 9 9 8 6 4 4 5 5
3 3 3 3 3 3 3 2 2 2 2 2 2 1 4 10 3 3 3 3 3 3 4 4 5 5 8 8 9 8 8 9 8 9 9 10 10 10 9 7 7 5 5 5 5
3 3 3 3 3 3 2 2 2 2 2 2 1 2 6 7 2 2 2 2 1 2 4 2 2 5 5 8 6 7 10 9 9 9 10 9 12 12 9 9 8 7 5 5 5
3 3 3 3 3 3 2 2 2 3 2 1 0 3 8 2 2 2 1 2 1 1 1 1 2 4 6 5 7 9 9 13 9 8 8 9 15 11 9 8 9 8 7 5 5
3 3 3 3 2 2 3 2 2 3 1 1 2 4 8 1 4 2 1 4 2 1 1 1 3 6 6 10 12 10 14 12 10 7 7 10 15 10 8 9 9 7 6 5 5
3 3 3 3 3 3 3 2 3 3 2 3 4 7 5 6 3 2 1 2 3 3 4 5 6 9 9 11 17 14 13 11 12 9 8 10 13 10 9 9 10 9 7 6 5
4 3 3 3 3 3 4 5 8 7 7 9 8 8 6 3 2 3 2 4 4 5 10 7 11 13 11 9 9 10 11 12 10 8 9 11 12 10 9 9 10 9 8 6 5
4 4 4 4 4 3 4 8 8 7 11 7 6 6 5 4 7 5 2 6 6 10 7 9 12 9 8 8 10 11 12 12 10 8 9 10 11 9 9 10 10 9 7 6 6
4 4 4 4 3 4 6 7 4 4 11 8 6 7 6 5 7 7 4 6 8 10 10 12 10 8 10 11 11 11 13 12 13 10 9 10 12 10 9 10 9 9 8 5 6
4 4 4 4 6 6 7 4 3 4 13 10 9 7 6 6 8 4 4 6 9 11 11 12 9 10 10 11 11 15 10 11 12 13 17 10 18 12 10 11 10 10 10 8 5
4 4 5 4 7 8 6 4 3 5 20 11 10 5 6 8 7 7 4 7 11 11 11 13 11 11 13 12 10 13 10 11 12 14 14 13 16 14 10 11 11 11 11 9 7
4 5 5 5 5 6 4 4 6 13 20 14 10 11 11 9 8 7 7 6 7 11 11 12 8 10 12 11 10 10 12 12 12 14 19 15 15 15 13 12 11 11 10 9 7
4 5 6 6 9 5 4 7 14 18 12 15 14 11 12 12 11 10 11 11 13 16 16 14 13 10 10 12 10 11 14 19 20 20 20 13 16 14 11 10 10 10 10 8 7
5 6 6 6 6 5 6 10 20 17 16 11 12 12 14 12 12 11 12 14 11 13 17 20 21 14 10 12 13 13 14 19 23 24 21 13 19 14 9 9 8 9 8 8 7
6 5 6 7 6 6 9 15 18 15 13 14 13 16 15 12 13 13 14 13 12 13 19 20 19 13 12 10 11 13 16 11 17 16 19 16 14 11 9 9 9 10 9 9 7
7 8 7 7 6 7 12 15 17 12 12 13 17 15 18 15 15 15 15 12 12 12 13 16 21 15 13 11 10 12 11 16 16 22 23 18 16 15 13 10 9 11 11 7 6
7 11 7 7 7 10 16 17 15 11 10 14 15 15 15 16 15 16 15 13 12 13 14 15 17 17 14 15 15 13 14 13 13 16 21 22 20 13 12 11 11 9 8 7 6
8 15 7 7 13 14 15 17 12 12 10 11 11 13 14 14 16 15 16 14 12 13 17 14 17 21 18 14 11 12 14 14 18 19 17 18 19 13 11 9 9 9 8 7 7
13 10 8 8 16 15 14 14 13 13 12 12 13 11 12 16 17 15 15 12 12 13 16 14 18 22 19 14 12 15 15 15 16 15 18 20 18 13 12 10 9 9 9 10 10
11 16 13 12 12 14 16 15 16 11 12 11 11 11 14 17 14 18 16 13 12 13 12 13 17 19 22 20 17 19 18 17 18 19 20 18 19 16 15 12 11 11 10 11 11
11 16 17 17 14 14 14 15 15 16 11 11 13 14 14 16 17 20 15 14 13 12 14 15 19 18 17 16 16 17 18 18 20 20 21 18 19 17 15 13 12 12 12 13 13
13 14 16 17 15 14 14 15 15 14 14 14 16 14 14 15 15 17 15 15 16 14 16 15 20 18 18 14 15 19 18 17 20 20 19 17 19 16 15 13 13 13 13 14 14
12 12 12 15 14 15 14 15 15 13 12 12 12 13 15 14 12 13 13 13 14 16 17 17 18 20 21 16 17 21 20 19 20 20 20 22 17 17 19 17 16 15 14 14 14